www.pogodaiklimat.ru

Погода и климат >> Архив погоды >> Россия >> Калининградская область >> Балтийск


ПОГОДА в Балтийске

  • Прогноз погоды в Балтийске
  • Монитор погоды в Балтийске

АРХИВ ПОГОДЫ в Балтийске

Время (UTC), дата Ветер
(напр.,м/с)
 
Видим.   Явления Облачность Т
(С)
Тd
(С)
f
(%)
Тe
(С)
Тes
(С)
Комфортность P
(гПа)
Po
(гПа)
Тmin
(С)
Tmax
(С)
R
(мм)
R24
(мм)
S
(см)
03 12.02 СЗ 6-11
{12}
20 км {ливн. осадки} 9/9 300 м
[Cb cap]
+2.3 -3.3 66 -3 -3 1009.9 1009.4 +2.0 1
06 12.02 СЗ 6-10
{12}
20 км {ливн. осадки} 9/9 300 м
[Sc diur, vesp]
+2.5 -2.0 72 -3 -3 1012.3 1011.8 +2.0 0.3
09 12.02 С 5-11
{12}
20 км {ливн. осадки} 9/9 300 м
[Cb cap]
+1.9 -0.9 82 -4 -4 1015.8 1015.3
12 12.02 СЗ 4-7
{11}
20 км {ливн. осадки} 9/9 300 м
[Cb cap]
+2.7 -2.5 69 -2 -2 1019.1 1018.5
15 12.02 СЗ 5-8
{10}
20 км 8/8 600 м
[Cu Sc]
+2.7 -1.4 74 -2 -2 1021.8 1021.2 0.0
18 12.02 З 7-11
{11}
20 км 3/3 600 м
[Cu Sc]
+2.3 -1.2 78 -4 -4 1023.6 1023.1 +3.5 0.0
21 12.02 З 7-9
{11}
20 км 3/0
[Ci fib]
+2.3 -0.6 81 -4 -4 1024.1 1023.6
00 13.02 З 7-9
{10}
20 км 1/0
[Ci fib]
+2.4 -0.7 80 -4 -4 1024.3 1023.8
03 13.02 З 9-11
{12}
20 км 9/0
[Ci fib]
+2.4 -0.6 81 -5 -5 1021.9 1021.4 +2.2
06 13.02 ЮЗ 10-14
{14}
10 км слаб. ливневой дождь 10/10 300 м
[Cb cap]
+1.2 +0.2 93 -7 -7 1019.4 1018.9 +1.1 0.6
09 13.02 З 10-12
{14}
10 км в посл. час ливневой дождь 10/10 300 м
[Cb cap]
+3.6 +2.9 95 -4 -4 1017.8 1017.3
12 13.02 З 14-19
{19}
10 км {ливн. осадки} 6/0
[Ci sp]
+5.6 +3.1 84 -2 -2 1017.9 1017.4
15 13.02 З 10-17
{19}
10 км 8/0
[Ci fib]
+5.3 +2.9 84 -1 -1 1020.1 1019.6 3
18 13.02 З 6-10
{16}
10 км 3/0
[Ci fib]
+4.4 +2.6 88 -1 -1 1022.9 1022.3 +5.8 2
21 13.02 З 8-10
{12}
10 км ясно +4.1 +2.5 89 -2 -2 1024.3 1023.7
00 14.02 З 8-9
{12}
10 км ясно +3.7 +2.5 92 -3 -3 1026.1 1025.5
03 14.02 З 6-10
{12}
10 км в посл. час ливневой дождь 10/10 300 м
[Cb cap]
+3.8 +2.7 93 -2 -2 1027.8 1027.2 +3.6 0.3
06 14.02 З 7-10
{14}
10 км {ливн. осадки} 9/9 300 м
[Cb cap]
+3.9 +2.4 90 -2 -2 1029.5 1029.0 +3.6 0.3
09 14.02 З 4-6
{10}
10 км 10/10 300 м
[Cb cap]
+4.2 +2.7 90 -0 -0 1030.9 1030.4
12 14.02 З 2-4
{8}
4000 м дымка 10/10 300 м
[Cb cap]
+4.3 +3.6 95 +1 +1 1032.0 1031.3
15 14.02 З 3-4
{6}
1000 м слаб. ливневой дождь 10/10 300 м
[Cb cap]
+3.6 +3.0 96 -1 -1 1031.5 1030.9 0.3
18 14.02 З 5-5
{6}
10 км слаб. ливневой дождь {туман} 10/10 300 м
[Cb cap]
+4.0 +3.6 97 -1 -1 1031.5 1030.9 +4.6 0.3
21 14.02 З 6-7
{8}
20 км 8/8 600 м
[Cu Sc]
+4.3 +3.3 93 -1 -1 1031.0 1030.4
00 15.02 ЮЗ 4-6
{8}
10 км 8/8 600 м
[Cu Sc]
+4.0 +2.8 92 -1 -1 1030.3 1029.7
03 15.02 З 7-8
{9}
4000 м дымка 10/10 300 м
[Cb cap]
+3.2 +2.0 92 -3 -3 1030.5 1029.9 +3.0 0.3
06 15.02 ЮЗ 7-8
{9}
4000 м дымка {ливн. осадки} 10/10 300 м
[Cb cap]
+3.5 +2.5 93 -3 -3 1029.8 1029.3 +3.0 0.0
09 15.02 З 6-8
{8}
4000 м дымка 10/10 600 м
[St]
+3.8 +2.9 94 -2 -2 1030.8 1030.3
12 15.02 З 8-9
{9}
2000 м дымка 10/10 600 м
[St]
+4.0 +3.4 96 -2 -2 1030.7 1030.2
15 15.02 З 5-5
{9}
2000 м дымка 10/10 600 м
[St]
+3.8 +3.2 96 -1 -1 1030.2 1029.7 0.0
18 15.02 ЮЗ 2-3
{6}
500 м туман ?/? +3.6 +3.2 97 0 0 1029.8 1029.3 +4.1
21 15.02 ЮЗ 4-5
{6}
4000 м дымка {туман} 10/10 600 м
[St]
+3.3 +2.9 97 -2 -2 1029.4 1028.9
00 16.02 Ю 3-4
{7}
4000 м дымка {туман} 4/0
[Ci fib]
+2.8 +1.8 93 -1 -1 1028.8 1028.3
03 16.02 Ю 2-4
{5}
10 км 4/0
[Ci fib]
+2.0 0.0 87 -1 -1 1027.3 1026.8 +2.0
06 16.02 Ю 4-5
{5}
10 км 3/0
[Ci fib]
+1.1 -0.5 89 -4 -4 1026.3 1025.8 +1.1
09 16.02 Ю 5-7
{7}
10 км 3/0
[Ci fib]
+3.3 -0.6 76 -2 -0 1025.2 1024.7
12 16.02 ЮЗ 6-8
{8}
20 км ясно +6.8 +0.9 66 +3 +4 1023.7 1023.1
15 16.02 Ю 6-8
{9}
20 км 1/0
[Ci fib]
+9.3 +1.0 56 +6 +6 1021.0 1020.5
18 16.02 ЮЗ 8-11
{11}
20 км 3/0
[Ci fib]
+9.1 +1.0 57 +5 +5 1019.8 1019.3 +10.2
21 16.02 ЮЗ 7-8
{11}
20 км ясно +5.2 +1.9 79 -0 -0 1019.8 1019.3
00 17.02 ЮЗ 5-7
{9}
20 км 9/9 600 м
[Cu Sc]
+4.9 +2.1 82 0 0 1019.8 1019.3
03 17.02 ЮЗ 5-6
{7}
20 км 8/8 600 м
[Cu Sc]
+4.5 +2.7 88 -0 -0 1019.9 1019.4 +4.5
06 17.02 З 7-8
{9}
4000 м дымка 10/10 600 м
[Sc diur, vesp]
+4.4 +3.2 92 -1 -1 1020.7 1020.2 +4.2
09 17.02 З 5-6
{8}
4000 м дымка 10/10 600 м
[St]
+4.6 +3.4 92 -0 -0 1022.2 1021.7
12 17.02 З 5-6
{7}
4000 м дымка 9/9 600 м
[Cu Sc]
+4.7 +3.4 91 -0 0 1022.7 1022.2
15 17.02 З 5-6
{8}
10 км 9/9 600 м
[Sc diur, vesp]
+4.3 +3.1 92 -1 -1 1023.3 1022.7
18 17.02 СЗ 2-4
{7}
2000 м дымка 10/10 300 м
[St]
+3.6 +3.0 96 +1 +1 1023.7 1023.1 +5.1
21 17.02 СЗ 3-4
{4}
500 м туман ?/? +2.7 +2.1 96 -2 -2 1024.0 1023.5
00 18.02 З 2-4
{5}
4000 м дымка {туман} 10/10 600 м
[St]
+2.6 +2.2 97 -1 -1 1024.4 1023.8
03 18.02 З 3-3
{4}
2000 м дымка 10/10 300 м
[St]
+2.4 +2.0 97 -2 -2 1023.8 1023.2 +2.1
06 18.02 Ю 2-3
{4}
500 м туман ?/? +2.1 +1.7 97 -1 -1 1023.6 1023.1 +2.0
09 18.02 ЮВ 2-6
{6}
200 м туман ?/? +1.9 +1.5 97 -2 -2 1023.8 1023.3
12 18.02 ЮВ 4-6
{6}
4000 м дымка {туман} 10/10 600 м
[St]
+3.4 +3.0 97 -1 -1 1022.7 1022.2
15 18.02 ЮВ 3-4
{5}
10 км 4/0
[Ci fib]
+5.1 +2.4 83 +2 +2 1020.1 1019.6
18 18.02 ЮВ 2-5
{5}
20 км ясно +6.3 +2.4 76 +4 +4 1018.8 1018.2 +6.6
21 18.02 Ю 5-7
{7}
20 км 1/1 600 м
[Cu Sc]
+4.4 +2.3 86 -1 -1 1017.5 1016.9
00 19.02 Ю 5-7
{8}
20 км ясно +3.6 +2.2 91 -2 -2 1015.8 1015.2

 

Местоположение метеостанции Балтийск (Калининградская область, Россия): широта 54.65 долгота 19.88 высота над уровнем моря 4 м.

В архиве по умолчанию представлена погода в Балтийске за последнюю неделю. Архивные данные за месяц целиком и за предыдущие месяцы, начиная с января 2011 года, Вы можете получить, выбрав интересующий диапазон дат из раскрывающегося списка и нажав кнопку "Ввод!".


*Определитесь, кто Вы:
робот инопланетянин человек

Внимание! Время в таблицах - всемирное. Для получения местного времени необходимо прибавить поправку, которая равна 2 ч.

Смотрите также архив погоды в соседних городах и на ближайших метеорологических станциях:

Погода в Мамоново (Калининградская область, Россия) (20 км)
Погода в Рыбном Порту (Калининградская область, Россия) (37 км)
Погода в Пионерском (Калининградская область, Россия) (40 км)
Погода в Калининграде (Калининградская область, Россия) (48 км)
Погода в Эльблонге (Польша) (61 км)
Погода в Хеле (Польша) (68 км)
Погода в Рыбачем (Калининградская область, Россия) (84 км)
Погода на Авиабазе Гдыня-Оксывье (Польша) (88 км)
Погода в Железнодорожном (Калининградская область, Россия) (97 км)
Погода в Ольштыне (Польша) (104 км)

Пояснения к столбцам:

Ветер - указаны скорость ветра в м/с - средняя за 10 мин, порывы в срок и между сроками (в фигурных скобках) и направление, откуда дует ветер: С - северный, СВ - северо-восточный, В - восточный, ЮВ - юго-восточный, Ю - южный, ЮЗ - юго-западный, З - западный, СЗ - северо-западный.
Видимость - горизонтальная дальность видимости в метрах или километрах. При видимости от 1 до 10 км при отсутствии осадков обычно наблюдается дымка, при ухудшении видимости до 1 км и менее - туман. В сухую погоду видимость может ухудшаться дымом, пылью или мглою.
Явления - указаны атмосферные явления, наблюдавшиеся в срок или в последний час перед сроком; фигурными скобками обозначены явления, наблюдавшиеся между сроками (за 1-3 часа до срока); квадратными скобками обозначены град или гололедные отложения с указанием их диаметра в мм.
Облачность - указаны через наклонную черту общая и нижняя облачность в баллах и высота нижней границы облаков в метрах; квадратными скобками обозначены формы облаков: Ci - перистые, Cs - перисто-слоистые, Cc - перисто-кучевые, Ac - высококучевые, As - высокослоистые, Sc - слоисто-кучевые, Ns - слоисто-дождевые, Cu - кучевые, Cb - кучево-дождевые. Подробнее классификацию облаков см. в Атласе облаков (PDF).
T - Температура воздуха - температура, измеренная на высоте 2 м над землей.
Td - Температура точки росы - температура, при понижении до которой содержащийся в воздухе водяной пар достигнет насыщения.
f - Относительная влажность воздуха - влажноcть воздуха, измеренная на высоте 2 м над землей.
Te - Эффективная температура - температура, которую ощущает одетый по сезону человек в тени. Характеристика душности погоды. При расчете учитывается влияние влажности воздуха и скорости ветра на теплоощущения человека.
Tes - Эффективная температура на солнце - температура, которую ощущает человек, с поправкой на солнечный нагрев. Характеристика знойности погоды. Зависит от высоты солнца над горизонтом, облачности и скорости ветра. Ночью, в пасмурную погоду, а также при ветре 12 м/с и более поправка равна нулю.
P - Атмосферное давление - приведенное к уровню моря атмосферное давление.
Po - Атмосферное давление - измеренное на уровне метеостанции атмосферное давление.
Tmin - Минимальная температура - минимум температуры воздуха на высоте 2 м над землей.
Tmax - Максимальная температура - максимум температуры воздуха на высоте 2 м над землей.
R - Количество осадков - Количество выпавших осадков за период времени, мм. При наведении курсора мыши на число - период времени, за который выпало указанное количество осадков.
R24 - Количество осадков - Количество выпавших осадков за 24 часа, мм.
S - Снежный покров - Высота снежного покрова, см. При наведении курсора мыши на число - состояние снежного покрова и степень покрытия местности в баллах.